Time,TemperatureF,DewpointF,PressureIn,WindDirection,WindDirectionDegrees,WindSpeedMPH,WindSpeedGustMPH,Humidity,HourlyPrecipIn,Conditions,Clouds,dailyrainin,SoftwareType,DateUTC
2013-02-28 00:04:00,46.6,9.5,30.10,NNE,17,0.7,1.8,22,0.00,,,0.00,WUHU216HW,2013-02-28 08:04:00,
2013-02-28 00:09:00,46.6,7.8,30.10,NNE,23,1.1,1.8,20,0.00,,,0.00,WUHU216HW,2013-02-28 08:09:00,
2013-02-28 00:14:00,46.8,3.4,30.09,SSE,158,1.8,2.5,17,0.00,,,0.00,WUHU216HW,2013-02-28 08:14:00,
2013-02-28 00:19:00,47.2,-6.7,30.10,SSW,203,2.9,5.8,8,0.00,,,0.00,WUHU216HW,2013-02-28 08:19:00,
2013-02-28 00:24:00,47.2,-3.7,30.10,West,261,1.2,5.8,12,0.00,,,0.00,WUHU216HW,2013-02-28 08:24:00,
2013-02-28 00:29:00,47.2,-3.7,30.09,West,262,1.4,3.8,12,0.00,,,0.00,WUHU216HW,2013-02-28 08:29:00,
2013-02-28 00:34:00,47.3,-3.5,30.09,SW,225,2.9,4.3,12,0.00,,,0.00,WUHU216HW,2013-02-28 08:34:00,
2013-02-28 00:39:00,47.5,-0.4,30.09,SSW,199,2.2,4.3,14,0.00,,,0.00,WUHU216HW,2013-02-28 08:39:00,
2013-02-28 00:44:00,47.5,-0.4,30.09,West,270,2.0,4.0,14,0.00,,,0.00,WUHU216HW,2013-02-28 08:44:00,
2013-02-28 00:49:00,47.7,-0.3,30.09,SE,135,2.5,3.8,14,0.00,,,0.00,WUHU216HW,2013-02-28 08:49:00,
2013-02-28 00:54:00,47.7,1.2,30.09,SW,215,2.2,3.8,15,0.00,,,0.00,WUHU216HW,2013-02-28 08:54:00,
2013-02-28 00:59:00,47.7,2.7,30.08,SE,146,2.8,5.6,16,0.00,,,0.00,WUHU216HW,2013-02-28 08:59:00,
2013-02-28 01:04:00,47.9,5.8,30.08,SE,128,1.6,5.8,18,0.00,,,0.00,WUHU216HW,2013-02-28 09:04:00,
2013-02-28 01:09:00,47.9,8.7,30.08,SSW,213,3.0,5.8,20,0.00,,,0.00,WUHU216HW,2013-02-28 09:09:00,
2013-02-28 01:14:00,47.9,9.6,30.08,South,183,1.9,4.7,21,0.00,,,0.00,WUHU216HW,2013-02-28 09:14:00,
2013-02-28 01:19:00,47.9,9.6,30.08,SE,143,3.3,4.5,21,0.00,,,0.00,WUHU216HW,2013-02-28 09:19:00,
2013-02-28 01:24:00,47.9,11.5,30.08,ESE,113,2.5,4.5,23,0.00,,,0.00,WUHU216HW,2013-02-28 09:24:00,
2013-02-28 01:29:00,47.9,12.4,30.08,SSE,158,1.8,3.1,24,0.00,,,0.00,WUHU216HW,2013-02-28 09:29:00,
2013-02-28 01:35:00,47.9,11.5,30.08,SSW,192,2.9,4.3,23,0.00,,,0.00,WUHU216HW,2013-02-28 09:35:00,
2013-02-28 01:40:00,47.9,13.4,30.09,SE,128,2.2,4.9,25,0.00,,,0.00,WUHU216HW,2013-02-28 09:40:00,
2013-02-28 01:45:00,47.9,11.5,30.08,South,180,3.8,4.9,23,0.00,,,0.00,WUHU216HW,2013-02-28 09:45:00,
2013-02-28 01:50:00,47.9,10.6,30.08,SE,143,1.9,5.4,22,0.00,,,0.00,WUHU216HW,2013-02-28 09:50:00,
2013-02-28 01:55:00,47.9,11.5,30.08,SW,216,3.0,5.4,23,0.00,,,0.00,WUHU216HW,2013-02-28 09:55:00,
2013-02-28 02:00:00,47.9,10.6,30.08,SW,223,2.2,4.7,22,0.00,,,0.00,WUHU216HW,2013-02-28 10:00:00,
2013-02-28 02:05:00,47.9,10.6,30.08,West,270,1.6,4.0,22,0.00,,,0.00,WUHU216HW,2013-02-28 10:05:00,
2013-02-28 02:10:00,47.9,9.6,30.08,South,180,3.4,3.4,21,0.00,,,0.00,WUHU216HW,2013-02-28 10:10:00,
2013-02-28 02:15:00,48.2,-2.8,30.08,SW,234,5.0,7.4,12,0.00,,,0.00,WUHU216HW,2013-02-28 10:15:00,
2013-02-28 02:20:00,48.4,0.3,30.08,SSW,203,4.0,8.5,14,0.00,,,0.00,WUHU216HW,2013-02-28 10:20:00,
2013-02-28 02:25:00,48.4,4.7,30.08,NW,315,2.7,8.5,17,0.00,,,0.00,WUHU216HW,2013-02-28 10:25:00,
2013-02-28 02:30:00,48.6,1.9,30.08,SSW,203,5.6,7.4,15,0.00,,,0.00,WUHU216HW,2013-02-28 10:30:00,
2013-02-28 02:35:00,48.6,3.4,30.08,South,180,2.9,7.6,16,0.00,,,0.00,WUHU216HW,2013-02-28 10:35:00,
2013-02-28 02:40:00,48.6,3.4,30.08,SSE,160,2.8,7.6,16,0.00,,,0.00,WUHU216HW,2013-02-28 10:40:00,
2013-02-28 02:45:00,48.6,6.4,30.08,South,169,2.7,6.3,18,0.00,,,0.00,WUHU216HW,2013-02-28 10:45:00,
2013-02-28 02:50:00,48.6,3.4,30.08,South,172,3.0,5.4,16,0.00,,,0.00,WUHU216HW,2013-02-28 10:50:00,
2013-02-28 02:55:00,48.6,4.9,30.08,SE,145,2.8,6.3,17,0.00,,,0.00,WUHU216HW,2013-02-28 10:55:00,
2013-02-28 03:01:00,48.6,3.4,30.08,SSE,155,4.5,7.4,16,0.00,,,0.00,WUHU216HW,2013-02-28 11:01:00,
2013-02-28 03:06:00,48.6,3.4,30.08,ESE,113,7.4,7.4,16,0.00,,,0.00,WUHU216HW,2013-02-28 11:06:00,
2013-02-28 03:11:00,48.6,0.5,30.08,SSW,203,6.3,7.4,14,0.00,,,0.00,WUHU216HW,2013-02-28 11:11:00,
2013-02-28 03:16:00,48.6,0.5,30.08,South,181,2.7,6.3,14,0.00,,,0.00,WUHU216HW,2013-02-28 11:16:00,
2013-02-28 03:21:00,48.6,4.9,30.08,SSW,203,1.8,4.0,17,0.00,,,0.00,WUHU216HW,2013-02-28 11:21:00,
2013-02-28 03:26:00,48.6,4.9,30.08,South,189,3.0,4.7,17,0.00,,,0.00,WUHU216HW,2013-02-28 11:26:00,
2013-02-28 03:31:00,48.6,4.9,30.08,NE,47,1.1,5.4,17,0.00,,,0.00,WUHU216HW,2013-02-28 11:31:00,
2013-02-28 03:36:00,48.6,0.5,30.09,SW,225,2.2,5.4,14,0.00,,,0.00,WUHU216HW,2013-02-28 11:36:00,
2013-02-28 03:41:00,48.6,-2.5,30.09,South,180,2.9,4.9,12,0.00,,,0.00,WUHU216HW,2013-02-28 11:41:00,
2013-02-28 03:46:00,48.6,-2.5,30.08,SSE,158,1.8,4.9,12,0.00,,,0.00,WUHU216HW,2013-02-28 11:46:00,
2013-02-28 03:51:00,48.6,-2.5,30.08,SE,135,1.1,4.0,12,0.00,,,0.00,WUHU216HW,2013-02-28 11:51:00,
2013-02-28 03:56:00,48.6,-2.5,30.09,SSE,168,1.9,4.9,12,0.00,,,0.00,WUHU216HW,2013-02-28 11:56:00,
2013-02-28 04:01:00,48.6,-2.5,30.08,SSE,167,1.7,4.9,12,0.00,,,0.00,WUHU216HW,2013-02-28 12:01:00,
2013-02-28 04:06:00,48.6,-1.1,30.08,WSW,248,4.3,5.1,13,0.00,,,0.00,WUHU216HW,2013-02-28 12:06:00,
2013-02-28 04:11:00,48.8,-3.9,30.08,SSE,158,5.4,8.5,11,0.00,,,0.00,WUHU216HW,2013-02-28 12:11:00,
2013-02-28 04:16:00,48.8,-2.4,30.08,SE,141,2.9,8.5,12,0.00,,,0.00,WUHU216HW,2013-02-28 12:16:00,
2013-02-28 04:21:00,48.8,-5.4,30.08,South,182,2.7,6.9,10,0.00,,,0.00,WUHU216HW,2013-02-28 12:21:00,
2013-02-28 04:26:00,49.0,-5.2,30.09,SSE,154,4.2,6.9,7,0.00,,,0.00,WUHU216HW,2013-02-28 12:26:00,
2013-02-28 04:31:00,49.0,-5.2,30.09,SSE,158,3.6,6.3,7,0.00,,,0.00,WUHU216HW,2013-02-28 12:31:00,
2013-02-28 04:36:00,49.0,-5.2,30.08,South,180,9.2,9.2,8,0.00,,,0.00,WUHU216HW,2013-02-28 12:36:00,
2013-02-28 04:41:00,49.0,-5.2,30.08,South,189,1.9,9.2,8,0.00,,,0.00,WUHU216HW,2013-02-28 12:41:00,
2013-02-28 04:47:00,49.0,-5.2,30.09,South,180,4.0,6.9,10,0.00,,,0.00,WUHU216HW,2013-02-28 12:47:00,
2013-02-28 04:52:00,49.1,-5.1,30.09,SSE,161,5.8,7.2,7,0.00,,,0.00,WUHU216HW,2013-02-28 12:52:00,
2013-02-28 04:57:00,49.1,-5.1,30.09,South,174,4.1,7.2,7,0.00,,,0.00,WUHU216HW,2013-02-28 12:57:00,
2013-02-28 05:02:00,49.1,-5.1,30.09,South,173,4.7,6.9,4,0.00,,,0.00,WUHU216HW,2013-02-28 13:02:00,
2013-02-28 05:07:00,49.3,-5.0,30.09,South,179,4.2,10.1,3,0.00,,,0.00,WUHU216HW,2013-02-28 13:07:00,
2013-02-28 05:12:00,49.3,-5.0,30.09,South,169,4.0,10.1,5,0.00,,,0.00,WUHU216HW,2013-02-28 13:12:00,
2013-02-28 05:17:00,49.3,-5.0,30.09,South,185,3.4,8.5,5,0.00,,,0.00,WUHU216HW,2013-02-28 13:17:00,
2013-02-28 05:22:00,49.3,-5.0,30.10,SSW,203,5.6,6.3,3,0.00,,,0.00,WUHU216HW,2013-02-28 13:22:00,
2013-02-28 05:27:00,49.3,-5.0,30.10,South,180,5.1,5.6,3,0.00,,,0.00,WUHU216HW,2013-02-28 13:27:00,
2013-02-28 05:33:00,49.5,-4.8,30.10,SE,142,1.3,6.7,5,0.00,,,0.00,WUHU216HW,2013-02-28 13:33:00,
2013-02-28 05:38:00,49.5,-4.8,30.10,SSE,158,6.3,6.7,5,0.00,,,0.00,WUHU216HW,2013-02-28 13:38:00,
2013-02-28 05:43:00,49.5,-4.8,30.10,South,180,7.8,8.1,5,0.00,,,0.00,WUHU216HW,2013-02-28 13:43:00,
2013-02-28 05:48:00,49.7,-4.8,30.10,South,187,3.9,8.1,5,0.00,,,0.00,WUHU216HW,2013-02-28 13:48:00,
2013-02-28 05:53:00,49.7,-4.8,30.11,SSW,203,6.3,7.8,6,0.00,,,0.00,WUHU216HW,2013-02-28 13:53:00,
2013-02-28 05:58:00,49.7,-4.8,30.11,South,188,4.2,6.9,5,0.00,,,0.00,WUHU216HW,2013-02-28 13:58:00,
2013-02-28 06:03:00,49.7,-4.8,30.11,SE,135,4.5,6.9,6,0.00,,,0.00,WUHU216HW,2013-02-28 14:03:00,
2013-02-28 06:08:00,49.9,-4.6,30.11,South,183,3.6,6.7,3,0.00,,,0.00,WUHU216HW,2013-02-28 14:08:00,
2013-02-28 06:13:00,50.0,-4.5,30.11,SE,135,1.3,6.7,7,0.00,,,0.00,WUHU216HW,2013-02-28 14:13:00,
2013-02-28 06:18:00,50.0,-4.5,30.12,South,174,3.2,4.7,7,0.00,,,0.00,WUHU216HW,2013-02-28 14:18:00,
2013-02-28 06:23:00,50.0,-4.5,30.12,SW,225,2.5,4.7,8,0.00,,,0.00,WUHU216HW,2013-02-28 14:23:00,
2013-02-28 06:28:00,50.0,-4.5,30.12,SSW,203,2.9,3.4,9,0.00,,,0.00,WUHU216HW,2013-02-28 14:28:00,
2013-02-28 06:33:00,50.2,-2.9,30.13,SSW,209,3.5,5.1,11,0.00,,,0.00,WUHU216HW,2013-02-28 14:33:00,
2013-02-28 06:39:00,50.2,-1.3,30.13,SSE,158,2.5,5.1,12,0.00,,,0.00,WUHU216HW,2013-02-28 14:39:00,
2013-02-28 06:44:00,50.2,-1.3,30.13,SSW,212,2.2,3.8,12,0.00,,,0.00,WUHU216HW,2013-02-28 14:44:00,
2013-02-28 06:49:00,50.2,-1.3,30.13,WSW,248,2.9,3.4,12,0.00,,,0.00,WUHU216HW,2013-02-28 14:49:00,
2013-02-28 06:54:00,50.4,1.8,30.13,South,178,2.2,5.1,14,0.00,,,0.00,WUHU216HW,2013-02-28 14:54:00,
2013-02-28 06:59:00,50.4,1.8,30.13,South,172,2.5,5.1,14,0.00,,,0.00,WUHU216HW,2013-02-28 14:59:00,
2013-02-28 07:04:00,50.4,1.8,30.13,SSW,203,2.5,4.9,14,0.00,,,0.00,WUHU216HW,2013-02-28 15:04:00,
2013-02-28 07:09:00,50.4,3.3,30.13,South,183,3.9,6.5,15,0.00,,,0.00,WUHU216HW,2013-02-28 15:09:00,
2013-02-28 07:14:00,50.4,3.3,30.13,South,172,3.1,6.5,15,0.00,,,0.00,WUHU216HW,2013-02-28 15:14:00,
2013-02-28 07:19:00,50.6,5.1,30.13,South,170,3.8,6.3,16,0.00,,,0.00,WUHU216HW,2013-02-28 15:19:00,
2013-02-28 07:24:00,50.6,5.1,30.14,SSW,211,1.9,6.3,16,0.00,,,0.00,WUHU216HW,2013-02-28 15:24:00,
2013-02-28 07:29:00,50.6,6.5,30.14,SSW,212,2.3,4.7,17,0.00,,,0.00,WUHU216HW,2013-02-28 15:29:00,
2013-02-28 07:34:00,50.8,6.7,30.14,SSE,163,3.8,4.7,17,0.00,,,0.00,WUHU216HW,2013-02-28 15:34:00,
2013-02-28 07:40:00,50.8,6.7,30.14,SE,135,2.2,4.7,17,0.00,,,0.00,WUHU216HW,2013-02-28 15:40:00,
2013-02-28 07:45:00,50.8,5.1,30.15,ESE,113,1.8,2.7,16,0.00,,,0.00,WUHU216HW,2013-02-28 15:45:00,
2013-02-28 07:49:00,50.8,6.7,30.15,SSW,203,2.0,2.0,17,0.00,,,0.00,WUHU216HW,2013-02-28 15:49:00,
2013-02-28 07:50:00,50.8,6.7,30.15,SE,137,3.2,5.4,17,0.00,,,0.00,WUHU216HW,2013-02-28 15:50:00,
2013-02-28 07:55:00,50.8,6.7,30.15,SSW,203,2.0,5.4,17,0.00,,,0.00,WUHU216HW,2013-02-28 15:55:00,
2013-02-28 08:00:00,50.8,6.7,30.15,SSW,203,5.1,5.1,17,0.00,,,0.00,WUHU216HW,2013-02-28 16:00:00,
2013-02-28 08:05:00,50.8,5.1,30.15,SE,141,0.7,5.4,16,0.00,,,0.00,WUHU216HW,2013-02-28 16:05:00,
2013-02-28 08:10:00,50.8,3.6,30.15,SSE,156,2.5,5.4,15,0.00,,,0.00,WUHU216HW,2013-02-28 16:10:00,
2013-02-28 08:15:00,50.8,5.1,30.15,SE,135,2.2,4.0,16,0.00,,,0.00,WUHU216HW,2013-02-28 16:15:00,
2013-02-28 08:20:00,50.8,5.1,30.15,SE,135,2.2,3.6,16,0.00,,,0.00,WUHU216HW,2013-02-28 16:20:00,
2013-02-28 09:00:00,50.9,-0.7,30.16,SE,135,4.5,4.5,12,0.01,,,0.01,WUHU216HW,2013-02-28 17:00:00,
2013-02-28 09:05:00,51.1,-3.6,30.16,NE,45,1.8,4.5,10,0.01,,,0.01,WUHU216HW,2013-02-28 17:05:00,
2013-02-28 09:10:00,51.3,-3.5,30.17,SSE,158,5.4,5.4,8,0.01,,,0.01,WUHU216HW,2013-02-28 17:10:00,
2013-02-28 09:15:00,51.3,-3.5,30.16,SSE,159,2.4,5.4,10,0.00,,,0.01,WUHU216HW,2013-02-28 17:15:00,
2013-02-28 09:20:00,51.5,-3.3,30.17,SSE,158,1.8,5.4,9,0.00,,,0.01,WUHU216HW,2013-02-28 17:20:00,
2013-02-28 09:25:00,51.7,-3.2,30.17,SSE,160,3.1,5.4,8,0.00,,,0.01,WUHU216HW,2013-02-28 17:25:00,
2013-02-28 09:30:00,51.7,-3.2,30.17,ESE,113,2.5,5.4,8,0.00,,,0.01,WUHU216HW,2013-02-28 17:30:00,
2013-02-28 09:35:00,51.8,-3.1,30.17,SE,144,3.3,5.1,8,0.00,,,0.01,WUHU216HW,2013-02-28 17:35:00,
2013-02-28 09:41:00,51.8,-3.1,30.17,South,169,4.8,6.7,8,0.00,,,0.01,WUHU216HW,2013-02-28 17:41:00,
2013-02-28 09:46:00,51.8,-3.1,30.17,South,169,3.5,6.7,8,0.00,,,0.01,WUHU216HW,2013-02-28 17:46:00,
2013-02-28 09:51:00,52.0,-2.9,30.17,SE,137,2.1,6.5,10,0.00,,,0.01,WUHU216HW,2013-02-28 17:51:00,
2013-02-28 09:56:00,52.0,-2.9,30.18,SSE,166,4.8,6.3,10,0.00,,,0.01,WUHU216HW,2013-02-28 17:56:00,
2013-02-28 10:01:00,52.2,-1.3,30.18,SE,135,2.5,6.3,11,0.00,,,0.01,WUHU216HW,2013-02-28 18:01:00,
2013-02-28 10:06:00,52.2,-2.8,30.18,SSE,158,1.1,3.4,10,0.00,,,0.01,WUHU216HW,2013-02-28 18:06:00,
2013-02-28 10:11:00,52.4,-2.6,30.18,ESE,112,0.7,3.8,10,0.00,,,0.01,WUHU216HW,2013-02-28 18:11:00,
2013-02-28 10:16:00,52.7,-2.3,30.18,SSW,200,1.4,3.8,7,0.00,,,0.01,WUHU216HW,2013-02-28 18:16:00,
2013-02-28 10:21:00,52.9,-2.1,30.18,SSE,168,2.3,4.0,7,0.00,,,0.01,WUHU216HW,2013-02-28 18:21:00,
2013-02-28 10:26:00,53.3,-1.9,30.18,South,172,1.3,4.0,7,0.00,,,0.01,WUHU216HW,2013-02-28 18:26:00,
2013-02-28 10:31:00,53.6,-1.6,30.18,SSW,203,2.9,4.0,7,0.00,,,0.01,WUHU216HW,2013-02-28 18:31:00,
2013-02-28 10:36:00,53.6,-1.6,30.18,SW,220,2.9,4.5,10,0.00,,,0.01,WUHU216HW,2013-02-28 18:36:00,
2013-02-28 10:41:00,53.6,18.5,30.18,SW,225,3.1,4.5,25,0.00,,,0.01,WUHU216HW,2013-02-28 18:41:00,
2013-02-28 10:46:00,53.6,17.3,30.19,SW,225,2.7,4.0,24,0.00,,,0.01,WUHU216HW,2013-02-28 18:46:00,
2013-02-28 10:51:00,53.6,16.4,30.19,SSW,203,4.9,4.9,23,0.00,,,0.01,WUHU216HW,2013-02-28 18:51:00,
2013-02-28 10:56:00,53.6,17.3,30.19,SSW,203,4.7,5.4,24,0.00,,,0.01,WUHU216HW,2013-02-28 18:56:00,
2013-02-28 11:01:00,53.6,23.8,30.18,SW,225,3.6,5.4,31,0.00,,,0.01,WUHU216HW,2013-02-28 19:01:00,
2013-02-28 11:06:00,54.0,20.5,30.18,SSW,203,6.5,6.5,27,0.00,,,0.01,WUHU216HW,2013-02-28 19:06:00,
2013-02-28 11:11:00,54.2,23.5,30.18,SSW,201,3.8,6.5,30,0.00,,,0.01,WUHU216HW,2013-02-28 19:11:00,
2013-02-28 11:16:00,54.4,25.0,30.18,SSW,196,3.5,6.5,32,0.00,,,0.01,WUHU216HW,2013-02-28 19:16:00,
2013-02-28 11:21:00,54.4,25.7,30.19,South,180,5.8,6.5,33,0.00,,,0.01,WUHU216HW,2013-02-28 19:21:00,
2013-02-28 11:26:00,54.5,30.0,30.19,South,180,6.7,7.8,39,0.00,,,0.01,WUHU216HW,2013-02-28 19:26:00,
2013-02-28 11:32:00,54.7,34.7,30.19,SW,225,3.4,8.5,47,0.00,,,0.01,WUHU216HW,2013-02-28 19:32:00,
2013-02-28 11:37:00,54.7,33.1,30.20,SSW,207,4.8,8.5,44,0.00,,,0.01,WUHU216HW,2013-02-28 19:37:00,
2013-02-28 11:42:00,54.9,34.4,30.20,SSW,203,3.4,6.3,46,0.00,,,0.01,WUHU216HW,2013-02-28 19:42:00,
2013-02-28 11:47:00,55.1,33.9,30.20,SW,214,3.3,6.9,45,0.00,,,0.01,WUHU216HW,2013-02-28 19:47:00,
2013-02-28 11:52:00,55.3,33.6,30.20,South,184,2.3,6.9,44,0.00,,,0.01,WUHU216HW,2013-02-28 19:52:00,
2013-02-28 11:57:00,55.3,33.6,30.20,SSW,194,2.8,5.1,44,0.00,,,0.01,WUHU216HW,2013-02-28 19:57:00,
2013-02-28 12:02:00,55.4,34.8,30.20,South,180,8.1,8.1,46,0.00,,,0.01,WUHU216HW,2013-02-28 20:02:00,
2013-02-28 12:07:00,55.6,35.6,30.20,South,169,3.8,8.1,47,0.00,,,0.01,WUHU216HW,2013-02-28 20:07:00,
2013-02-28 12:12:00,55.8,36.9,30.20,SSE,158,3.4,8.1,49,0.00,,,0.01,WUHU216HW,2013-02-28 20:12:00,
2013-02-28 12:17:00,55.8,38.9,30.20,WSW,248,4.5,4.7,53,0.00,,,0.01,WUHU216HW,2013-02-28 20:17:00,
2013-02-28 12:22:00,56.0,37.6,30.20,SW,218,3.5,4.9,50,0.00,,,0.01,WUHU216HW,2013-02-28 20:22:00,
2013-02-28 12:27:00,56.2,36.6,30.20,WSW,248,3.4,5.1,48,0.00,,,0.01,WUHU216HW,2013-02-28 20:27:00,
2013-02-28 12:32:00,56.5,37.0,30.20,South,188,3.2,6.0,48,0.00,,,0.01,WUHU216HW,2013-02-28 20:32:00,
2013-02-28 12:37:00,56.7,38.8,30.20,SSW,210,3.2,6.3,51,0.00,,,0.01,WUHU216HW,2013-02-28 20:37:00,
2013-02-28 12:42:00,56.7,40.2,30.20,SSW,202,5.0,7.2,54,0.00,,,0.01,WUHU216HW,2013-02-28 20:42:00,
2013-02-28 12:47:00,56.5,42.0,30.20,SW,234,2.7,7.2,58,0.00,,,0.01,WUHU216HW,2013-02-28 20:47:00,
2013-02-28 12:53:00,56.5,41.0,30.21,South,180,6.9,8.1,56,0.00,,,0.01,WUHU216HW,2013-02-28 20:53:00,
2013-02-28 12:58:00,56.5,42.0,30.20,SSW,205,5.0,8.1,58,0.00,,,0.01,WUHU216HW,2013-02-28 20:58:00,
2013-02-28 13:03:00,56.5,42.8,30.20,South,180,4.0,6.3,60,0.00,,,0.01,WUHU216HW,2013-02-28 21:03:00,
2013-02-28 13:08:00,56.5,42.0,30.20,SSE,158,8.5,9.2,58,0.00,,,0.01,WUHU216HW,2013-02-28 21:08:00,
2013-02-28 13:13:00,56.5,42.0,30.20,SSE,158,3.4,9.2,58,0.00,,,0.01,WUHU216HW,2013-02-28 21:13:00,
2013-02-28 13:18:00,56.9,41.3,30.20,SSW,208,4.8,8.7,56,0.00,,,0.01,WUHU216HW,2013-02-28 21:18:00,
2013-02-28 13:23:00,57.6,42.0,30.20,SSW,203,4.9,8.5,56,0.00,,,0.01,WUHU216HW,2013-02-28 21:23:00,
2013-02-28 13:28:00,58.0,47.4,30.19,WSW,248,7.6,7.8,68,0.00,,,0.01,WUHU216HW,2013-02-28 21:28:00,
2013-02-28 13:33:00,58.5,48.0,30.20,South,189,6.6,10.5,68,0.00,,,0.01,WUHU216HW,2013-02-28 21:33:00,
2013-02-28 13:38:00,59.4,49.7,30.20,SW,225,7.2,10.5,70,0.00,,,0.01,WUHU216HW,2013-02-28 21:38:00,
2013-02-28 13:44:00,59.6,49.9,30.20,WSW,245,7.5,10.5,70,0.00,,,0.01,WUHU216HW,2013-02-28 21:44:00,
2013-02-28 13:49:00,59.4,50.0,30.20,SW,225,8.9,10.5,71,0.00,,,0.01,WUHU216HW,2013-02-28 21:49:00,
2013-02-28 13:54:00,59.9,50.2,30.20,South,185,2.5,8.9,70,0.00,,,0.01,WUHU216HW,2013-02-28 21:54:00,
2013-02-28 13:59:00,59.9,49.8,30.20,South,180,6.3,9.4,69,0.00,,,0.01,WUHU216HW,2013-02-28 21:59:00,
2013-02-28 14:04:00,59.6,50.2,30.20,WSW,248,6.7,9.4,71,0.00,,,0.01,WUHU216HW,2013-02-28 22:04:00,
2013-02-28 14:09:00,59.0,50.0,30.20,SSW,203,6.0,9.4,72,0.00,,,0.01,WUHU216HW,2013-02-28 22:09:00,
2013-02-28 14:14:00,58.7,49.3,30.21,WSW,242,9.9,11.4,71,0.00,,,0.01,WUHU216HW,2013-02-28 22:14:00,
2013-02-28 14:19:00,58.9,49.1,30.21,West,270,6.5,11.4,70,0.00,,,0.01,WUHU216HW,2013-02-28 22:19:00,
2013-02-28 14:24:00,58.7,49.0,30.21,WSW,256,6.4,9.4,70,0.00,,,0.01,WUHU216HW,2013-02-28 22:24:00,
2013-02-28 14:29:00,58.7,49.7,30.21,WSW,248,10.3,10.7,72,0.00,,,0.01,WUHU216HW,2013-02-28 22:29:00,
2013-02-28 14:34:00,58.7,49.7,30.21,WSW,248,10.3,10.7,72,0.00,,,0.01,WUHU216HW,2013-02-28 22:34:00,
2013-02-28 15:00:00,57.1,48.1,30.22,WSW,243,5.9,6.9,72,0.00,,,0.01,WUHU216HW,2013-02-28 23:00:00,
2013-02-28 15:03:00,57.2,48.2,30.22,SW,225,6.5,6.5,72,0.00,,,0.01,WUHU216HW,2013-02-28 23:03:00,
2013-02-28 15:05:00,57.2,48.2,30.22,SW,226,7.1,8.7,72,0.00,,,0.01,WUHU216HW,2013-02-28 23:05:00,
2013-02-28 15:10:00,57.2,48.2,30.22,SW,225,6.5,8.7,72,0.00,,,0.01,WUHU216HW,2013-02-28 23:10:00,
2013-02-28 16:00:00,56.7,47.4,30.24,WSW,237,4.3,4.5,71,0.00,,,0.01,WUHU216HW,2013-03-01 00:00:00,
2013-02-28 16:05:00,56.5,47.3,30.24,WSW,248,6.3,8.3,71,0.00,,,0.01,WUHU216HW,2013-03-01 00:05:00,
2013-02-28 16:10:00,56.5,46.9,30.24,West,270,2.5,8.3,70,0.00,,,0.01,WUHU216HW,2013-03-01 00:10:00,
2013-02-28 16:15:00,56.5,46.9,30.24,SW,225,2.5,6.3,70,0.00,,,0.01,WUHU216HW,2013-03-01 00:15:00,
2013-02-28 16:20:00,56.2,46.5,30.24,WSW,240,3.3,8.9,70,0.00,,,0.01,WUHU216HW,2013-03-01 00:20:00,
2013-02-28 16:25:00,56.0,46.4,30.24,SW,225,4.9,10.5,70,0.00,,,0.01,WUHU216HW,2013-03-01 00:25:00,
2013-02-28 16:30:00,56.0,46.4,30.24,SW,219,6.4,12.8,70,0.00,,,0.01,WUHU216HW,2013-03-01 00:30:00,
2013-02-28 16:36:00,55.8,46.3,30.25,WSW,253,8.9,12.8,70,0.00,,,0.01,WUHU216HW,2013-03-01 00:36:00,
2013-02-28 16:41:00,55.6,45.6,30.25,SW,221,3.1,10.7,69,0.00,,,0.01,WUHU216HW,2013-03-01 00:41:00,
2013-02-28 16:46:00,55.6,46.1,30.25,SW,228,4.7,8.1,70,0.00,,,0.01,WUHU216HW,2013-03-01 00:46:00,
2013-02-28 16:51:00,55.6,45.6,30.25,West,270,2.9,8.1,69,0.00,,,0.01,WUHU216HW,2013-03-01 00:51:00,
2013-02-28 16:56:00,55.6,45.6,30.26,SSW,203,5.6,7.6,69,0.00,,,0.01,WUHU216HW,2013-03-01 00:56:00,
2013-02-28 17:01:00,55.6,45.6,30.26,WSW,240,2.9,7.6,69,0.00,,,0.01,WUHU216HW,2013-03-01 01:01:00,
2013-02-28 17:06:00,55.4,45.9,30.26,SW,217,4.6,7.8,70,0.00,,,0.01,WUHU216HW,2013-03-01 01:06:00,
2013-02-28 17:11:00,55.6,46.1,30.26,SW,215,4.9,8.5,70,0.00,,,0.01,WUHU216HW,2013-03-01 01:11:00,
2013-02-28 17:16:00,55.6,46.1,30.26,SW,231,5.5,8.7,70,0.00,,,0.01,WUHU216HW,2013-03-01 01:16:00,
2013-02-28 17:21:00,55.8,46.3,30.26,South,182,6.4,9.2,70,0.00,,,0.01,WUHU216HW,2013-03-01 01:21:00,
2013-02-28 17:26:00,55.8,46.3,30.26,SSW,199,7.1,9.2,70,0.00,,,0.01,WUHU216HW,2013-03-01 01:26:00,
2013-02-28 17:32:00,55.8,46.3,30.26,SW,231,4.1,9.2,70,0.00,,,0.01,WUHU216HW,2013-03-01 01:32:00,
2013-02-28 17:35:00,55.8,46.3,30.26,SSW,203,4.0,4.0,70,0.00,,,0.01,WUHU216HW,2013-03-01 01:35:00,
2013-02-28 17:37:00,55.8,46.3,30.26,SSW,203,4.0,8.5,70,0.00,,,0.01,WUHU216HW,2013-03-01 01:37:00,
2013-02-28 17:42:00,55.8,46.3,30.26,SSW,203,4.0,4.7,70,0.00,,,0.01,WUHU216HW,2013-03-01 01:42:00,
2013-02-28 18:00:00,54.7,44.7,30.26,SSW,203,6.0,6.0,69,0.00,,,0.01,WUHU216HW,2013-03-01 02:00:00,
2013-02-28 18:05:00,54.5,44.6,30.27,SW,225,5.4,8.3,69,0.00,,,0.01,WUHU216HW,2013-03-01 02:05:00,
2013-02-28 18:10:00,54.4,44.0,30.27,South,181,2.3,8.3,68,0.00,,,0.01,WUHU216HW,2013-03-01 02:10:00,
2013-02-28 18:15:00,54.2,43.8,30.27,South,174,1.3,4.3,68,0.00,,,0.01,WUHU216HW,2013-03-01 02:15:00,
2013-02-28 18:19:00,54.2,43.5,30.27,WSW,248,1.8,1.8,67,0.00,,,0.01,WUHU216HW,2013-03-01 02:19:00,
2013-02-28 18:20:00,54.2,43.5,30.27,WSW,248,1.8,2.7,67,0.00,,,0.01,WUHU216HW,2013-03-01 02:20:00,
2013-02-28 18:25:00,54.2,43.5,30.27,WSW,248,1.8,2.7,67,0.00,,,0.01,WUHU216HW,2013-03-01 02:25:00,
2013-02-28 19:00:00,53.1,41.6,30.28,WSW,248,1.6,1.6,65,0.00,,,0.01,WUHU216HW,2013-03-01 03:00:00,
2013-02-28 19:05:00,53.1,41.6,30.28,WSW,248,1.6,1.6,65,0.00,,,0.01,WUHU216HW,2013-03-01 03:05:00,
2013-02-28 20:00:00,51.8,37.4,30.30,South,180,1.3,1.3,58,0.00,,,0.01,WUHU216HW,2013-03-01 04:00:00,
2013-02-28 20:05:00,51.8,37.0,30.30,SW,216,1.1,2.0,57,0.00,,,0.01,WUHU216HW,2013-03-01 04:05:00,
2013-02-28 20:10:00,51.8,35.6,30.30,WSW,241,1.4,2.0,54,0.00,,,0.01,WUHU216HW,2013-03-01 04:10:00,
2013-02-28 20:15:00,51.8,35.6,30.30,SW,225,2.9,2.9,54,0.00,,,0.01,WUHU216HW,2013-03-01 04:15:00,
2013-02-28 20:20:00,51.8,35.2,30.30,West,270,1.6,2.9,53,0.00,,,0.01,WUHU216HW,2013-03-01 04:20:00,
2013-02-28 20:25:00,52.0,29.5,30.30,West,270,2.5,2.9,42,0.00,,,0.01,WUHU216HW,2013-03-01 04:25:00,
2013-02-28 20:30:00,51.8,33.3,30.30,West,270,1.1,2.9,49,0.00,,,0.01,WUHU216HW,2013-03-01 04:30:00,
2013-02-28 20:35:00,51.8,33.3,30.30,West,270,0.4,2.9,49,0.00,,,0.01,WUHU216HW,2013-03-01 04:35:00,
2013-02-28 20:40:00,51.8,33.8,30.30,West,270,0.0,1.6,50,0.00,,,0.01,WUHU216HW,2013-03-01 04:40:00,
2013-02-28 20:45:00,51.8,33.8,30.30,West,270,0.0,0.0,50,0.00,,,0.01,WUHU216HW,2013-03-01 04:45:00,
2013-02-28 20:51:00,51.7,33.7,30.30,West,270,0.0,0.0,50,0.00,,,0.01,WUHU216HW,2013-03-01 04:51:00,
2013-02-28 20:56:00,51.7,33.7,30.30,West,270,0.0,0.0,50,0.00,,,0.01,WUHU216HW,2013-03-01 04:56:00,
2013-02-28 21:00:00,51.5,33.5,30.30,SW,225,0.0,0.0,50,0.00,,,0.01,WUHU216HW,2013-03-01 05:00:00,
2013-02-28 21:01:00,51.5,33.5,30.30,SW,225,0.0,0.0,50,0.00,,,0.01,WUHU216HW,2013-03-01 05:01:00,
2013-02-28 21:06:00,51.5,33.5,30.30,SSE,158,0.7,1.1,50,0.00,,,0.01,WUHU216HW,2013-03-01 05:06:00,
2013-02-28 21:12:00,51.5,32.4,30.30,South,180,0.3,1.1,48,0.00,,,0.01,WUHU216HW,2013-03-01 05:12:00,
2013-02-28 21:17:00,51.3,32.8,30.30,South,180,0.0,1.1,49,0.00,,,0.01,WUHU216HW,2013-03-01 05:17:00,
2013-02-28 21:22:00,51.1,33.2,30.30,South,180,0.0,0.0,50,0.00,,,0.01,WUHU216HW,2013-03-01 05:22:00,
2013-02-28 21:27:00,50.8,32.9,30.31,ESE,113,0.7,0.9,50,0.00,,,0.01,WUHU216HW,2013-03-01 05:27:00,
2013-02-28 21:32:00,50.8,32.9,30.31,ESE,113,0.5,0.9,50,0.00,,,0.01,WUHU216HW,2013-03-01 05:32:00,
2013-02-28 21:37:00,50.4,32.6,30.31,ESE,113,0.0,0.7,50,0.00,,,0.01,WUHU216HW,2013-03-01 05:37:00,
2013-02-28 21:42:00,50.0,32.2,30.31,SE,135,0.4,0.9,50,0.00,,,0.01,WUHU216HW,2013-03-01 05:42:00,
2013-02-28 21:47:00,49.7,32.3,30.31,SE,135,0.3,0.9,51,0.00,,,0.01,WUHU216HW,2013-03-01 05:47:00,
2013-02-28 21:52:00,49.5,32.1,30.31,SE,135,0.0,0.7,51,0.00,,,0.01,WUHU216HW,2013-03-01 05:52:00,
2013-02-28 21:57:00,49.3,31.0,30.31,SE,135,0.3,0.7,49,0.00,,,0.01,WUHU216HW,2013-03-01 05:57:00,
2013-02-28 22:02:00,49.3,31.0,30.32,SE,135,1.1,1.1,49,0.00,,,0.01,WUHU216HW,2013-03-01 06:02:00,
2013-02-28 22:07:00,49.3,30.4,30.31,SE,135,0.4,1.1,48,0.00,,,0.01,WUHU216HW,2013-03-01 06:07:00,
2013-02-28 22:12:00,49.3,28.7,30.32,SE,135,0.9,1.1,45,0.00,,,0.01,WUHU216HW,2013-03-01 06:12:00,
2013-02-28 22:17:00,49.1,28.6,30.32,SE,135,0.4,1.1,45,0.00,,,0.01,WUHU216HW,2013-03-01 06:17:00,
2013-02-28 22:22:00,49.1,28.6,30.32,SE,135,0.7,0.9,45,0.00,,,0.01,WUHU216HW,2013-03-01 06:22:00,
2013-02-28 22:27:00,49.1,27.5,30.32,SE,135,0.9,1.8,43,0.00,,,0.01,WUHU216HW,2013-03-01 06:27:00,
2013-02-28 22:32:00,49.3,26.0,30.32,SE,135,0.0,1.8,40,0.00,,,0.01,WUHU216HW,2013-03-01 06:32:00,
2013-02-28 22:37:00,49.3,25.3,30.32,ESE,113,1.1,1.3,39,0.00,,,0.01,WUHU216HW,2013-03-01 06:37:00,
2013-02-28 22:42:00,49.3,25.3,30.32,ESE,113,0.0,1.3,39,0.00,,,0.01,WUHU216HW,2013-03-01 06:42:00,
2013-02-28 22:47:00,49.1,24.5,30.32,ESE,113,0.7,1.1,38,0.00,,,0.01,WUHU216HW,2013-03-01 06:47:00,
2013-02-28 22:53:00,49.1,23.8,30.33,NNE,23,0.8,1.1,37,0.00,,,0.01,WUHU216HW,2013-03-01 06:53:00,
2013-02-28 22:58:00,49.1,23.8,30.33,NNE,23,0.7,1.1,37,0.00,,,0.01,WUHU216HW,2013-03-01 06:58:00,
2013-02-28 23:03:00,49.1,23.8,30.32,NNE,23,0.3,1.1,37,0.00,,,0.01,WUHU216HW,2013-03-01 07:03:00,
2013-02-28 23:08:00,49.3,23.3,30.33,NNE,23,0.0,0.9,36,0.00,,,0.01,WUHU216HW,2013-03-01 07:08:00,
2013-02-28 23:13:00,49.1,21.8,30.32,NNE,23,0.4,1.1,34,0.00,,,0.01,WUHU216HW,2013-03-01 07:13:00,
2013-02-28 23:18:00,49.1,21.8,30.32,NNE,23,0.5,1.1,34,0.00,,,0.01,WUHU216HW,2013-03-01 07:18:00,
2013-02-28 23:23:00,49.1,21.1,30.32,NNE,23,0.4,0.9,33,0.00,,,0.01,WUHU216HW,2013-03-01 07:23:00,
2013-02-28 23:28:00,49.3,21.2,30.32,SW,222,0.6,1.3,33,0.00,,,0.01,WUHU216HW,2013-03-01 07:28:00,
2013-02-28 23:33:00,49.3,19.9,30.33,West,270,0.8,1.3,31,0.00,,,0.01,WUHU216HW,2013-03-01 07:33:00,
2013-02-28 23:38:00,49.3,18.3,30.33,WSW,248,0.0,1.3,29,0.00,,,0.01,WUHU216HW,2013-03-01 07:38:00,
2013-02-28 23:43:00,49.3,18.3,30.32,SSW,203,1.6,1.6,29,0.00,,,0.01,WUHU216HW,2013-03-01 07:43:00,
2013-02-28 23:48:00,49.7,16.7,30.32,SW,225,1.1,3.4,27,0.00,,,0.01,WUHU216HW,2013-03-01 07:48:00,
2013-02-28 23:53:00,50.0,13.4,30.32,SSE,158,2.5,3.4,23,0.00,,,0.01,WUHU216HW,2013-03-01 07:53:00,
2013-02-28 23:58:00,50.2,7.7,30.32,SSW,203,2.5,3.4,18,0.00,,,0.01,WUHU216HW,2013-03-01 07:58:00,